FDX1690 KOAK-NZAA

Flight info

Callsign FDX1690
Flight time N/A
Altitude 28000
Route OAK DCT CINNY A220 AHNDO/N0503F300 B577 SANTA/N0502F320 B577 SAPIX/N0495F340 B577 TUT B575 ELPAK
Aircraft B77L/H-SDE1E2E3FGHIJ2J3J4J5M1RWXY/LB1D1

Departure

Time N/A
Airport San Francisco Bay Oakland International Airport (KOAK)

Arrival

Time 2026-05-06 18:03
Airport Auckland International Airport (NZAA)
Time Latitude Longitude Altitude Speed Heading
2026-05-06 15:39 -22.71641 -175.74694 33886 ft 434 kts 214°
2026-05-06 15:39 -22.74218 -175.76381 33881 ft 434 kts 217°
2026-05-06 15:39 -22.79465 -175.79850 33912 ft 448 kts 212°
2026-05-06 15:40 -22.84848 -175.83253 33889 ft 446 kts 213°
2026-05-06 15:40 -22.90128 -175.86669 33866 ft 443 kts 215°
2026-05-06 15:41 -22.95421 -175.90050 33885 ft 441 kts 216°
2026-05-06 15:41 -23.00694 -175.93430 33906 ft 442 kts 215°
2026-05-06 15:42 -23.06076 -175.96886 34066 ft 458 kts 214°
2026-05-06 15:42 -23.11662 -176.00497 34179 ft 475 kts 214°
2026-05-06 15:43 -23.17427 -176.04230 34381 ft 489 kts 214°
2026-05-06 15:43 -23.20359 -176.06123 34589 ft 492 kts 214°
2026-05-06 15:43 -23.23301 -176.08023 34940 ft 491 kts 214°
2026-05-06 15:44 -23.26225 -176.09912 35403 ft 487 kts 214°
2026-05-06 15:44 -23.29124 -176.11784 35877 ft 483 kts 214°
2026-05-06 15:44 -23.32005 -176.13644 36325 ft 479 kts 215°
2026-05-06 15:44 -23.34859 -176.15491 36730 ft 477 kts 215°
2026-05-06 15:45 -23.37703 -176.17337 37110 ft 474 kts 215°
2026-05-06 15:45 -23.40523 -176.19168 37589 ft 470 kts 215°
2026-05-06 15:45 -23.43317 -176.20982 38053 ft 465 kts 215°
2026-05-06 15:45 -23.46090 -176.22783 38401 ft 463 kts 215°
2026-05-06 15:46 -23.48857 -176.24582 38658 ft 463 kts 216°
2026-05-06 15:46 -23.51621 -176.26381 38843 ft 463 kts 216°
2026-05-06 15:46 -23.54346 -176.28154 39046 ft 462 kts 216°
2026-05-06 15:46 -23.57139 -176.29972 39247 ft 461 kts 216°
2026-05-06 15:47 -23.59854 -176.31740 39447 ft 460 kts 216°
2026-05-06 15:47 -23.62603 -176.33531 39623 ft 460 kts 216°
2026-05-06 15:47 -23.65348 -176.35321 39790 ft 460 kts 216°
2026-05-06 15:47 -23.68096 -176.37112 39857 ft 461 kts 216°
2026-05-06 15:48 -23.73602 -176.40706 39940 ft 462 kts 216°
2026-05-06 15:48 -23.79117 -176.44308 39949 ft 461 kts 216°
2026-05-06 15:49 -23.84621 -176.47907 39945 ft 461 kts 216°
2026-05-06 15:49 -23.90127 -176.51510 39949 ft 461 kts 216°
2026-05-06 15:50 -23.95627 -176.55113 39957 ft 460 kts 216°
2026-05-06 15:50 -24.01120 -176.58716 39961 ft 460 kts 215°
2026-05-06 15:51 -24.06604 -176.62316 39965 ft 459 kts 215°
2026-05-06 15:51 -24.12078 -176.65912 39960 ft 458 kts 215°
2026-05-06 15:52 -24.17540 -176.69505 39957 ft 457 kts 215°
2026-05-06 15:52 -24.22989 -176.73092 39966 ft 456 kts 216°
2026-05-06 15:53 -24.28425 -176.76675 39966 ft 456 kts 216°
2026-05-06 15:53 -24.33855 -176.80258 39972 ft 455 kts 216°
2026-05-06 15:54 -24.39282 -176.83843 39977 ft 455 kts 216°
2026-05-06 15:54 -24.44707 -176.87430 39975 ft 455 kts 216°
2026-05-06 15:55 -24.50135 -176.91022 39980 ft 456 kts 216°
2026-05-06 15:55 -24.55561 -176.94617 39982 ft 456 kts 216°
2026-05-06 15:56 -24.60985 -176.98215 39988 ft 456 kts 215°
2026-05-06 15:56 -24.66410 -177.01815 39985 ft 455 kts 215°
2026-05-06 15:57 -24.71830 -177.05416 39985 ft 455 kts 215°
2026-05-06 15:57 -24.77241 -177.09016 39991 ft 454 kts 215°
2026-05-06 15:58 -24.82611 -177.12592 39994 ft 454 kts 215°
2026-05-06 15:58 -24.88008 -177.16190 39994 ft 453 kts 215°
2026-05-06 15:59 -24.93402 -177.19790 39994 ft 453 kts 215°
2026-05-06 15:59 -24.98791 -177.23390 40016 ft 453 kts 215°
2026-05-06 16:00 -25.04318 -177.26770 40010 ft 455 kts 212°
2026-05-06 16:00 -25.09692 -177.29844 40009 ft 455 kts 211°
2026-05-06 16:01 -25.15321 -177.33059 40012 ft 455 kts 211°
2026-05-06 16:01 -25.20929 -177.36288 40011 ft 454 kts 211°
2026-05-06 16:02 -25.26526 -177.39527 40014 ft 454 kts 211°
2026-05-06 16:02 -25.32111 -177.42767 40043 ft 453 kts 212°
2026-05-06 16:03 -25.37691 -177.46007 40025 ft 453 kts 212°
2026-05-06 16:03 -25.43259 -177.49242 40027 ft 452 kts 212°
2026-05-06 16:04 -25.48822 -177.52478 40026 ft 451 kts 212°
2026-05-06 16:04 -25.54368 -177.55708 40039 ft 450 kts 212°
2026-05-06 16:05 -25.59911 -177.58939 40032 ft 450 kts 212°
2026-05-06 16:05 -25.65418 -177.62153 40048 ft 451 kts 212°
2026-05-06 16:06 -25.70963 -177.65393 40047 ft 451 kts 212°
2026-05-06 16:06 -25.76548 -177.68659 40049 ft 451 kts 212°
2026-05-06 16:07 -25.82061 -177.71886 40057 ft 451 kts 211°
2026-05-06 16:07 -25.87604 -177.75134 40052 ft 450 kts 211°
2026-05-06 16:08 -25.93176 -177.78403 40053 ft 450 kts 211°
2026-05-06 16:08 -25.98674 -177.81632 40058 ft 450 kts 211°
2026-05-06 16:09 -26.04203 -177.84882 40058 ft 449 kts 211°
2026-05-06 16:09 -26.09721 -177.88130 40060 ft 448 kts 211°
2026-05-06 16:10 -26.15234 -177.91378 40065 ft 448 kts 211°
2026-05-06 16:10 -26.20743 -177.94627 40065 ft 448 kts 211°
2026-05-06 16:11 -26.26245 -177.97876 40086 ft 448 kts 211°
2026-05-06 16:11 -26.31753 -178.01132 40077 ft 448 kts 211°
2026-05-06 16:12 -26.37266 -178.04394 40078 ft 449 kts 211°
2026-05-06 16:12 -26.42789 -178.07665 40079 ft 450 kts 211°
2026-05-06 16:13 -26.48311 -178.10941 40086 ft 450 kts 211°
2026-05-06 16:13 -26.53838 -178.14222 40079 ft 449 kts 211°
2026-05-06 16:14 -26.58422 -178.16945 40092 ft 449 kts 211°
2026-05-06 16:14 -26.63938 -178.20226 40088 ft 449 kts 211°
2026-05-06 16:15 -26.70339 -178.24038 40088 ft 448 kts 211°
2026-05-06 16:15 -26.74942 -178.26783 40092 ft 448 kts 211°
2026-05-06 16:16 -26.80437 -178.30062 40090 ft 447 kts 211°
2026-05-06 16:16 -26.85881 -178.33316 40098 ft 446 kts 211°
2026-05-06 16:17 -26.91369 -178.36596 40106 ft 447 kts 210°
2026-05-06 16:17 -26.96857 -178.39880 40111 ft 447 kts 211°
2026-05-06 16:18 -27.02349 -178.43177 40112 ft 448 kts 211°
2026-05-06 16:18 -27.07859 -178.46484 40110 ft 449 kts 210°
2026-05-06 16:19 -27.13369 -178.49795 40121 ft 450 kts 210°
2026-05-06 16:19 -27.18884 -178.53112 40107 ft 450 kts 210°
2026-05-06 16:20 -27.24400 -178.56433 40123 ft 449 kts 210°
2026-05-06 16:20 -27.29901 -178.59750 40119 ft 449 kts 210°
2026-05-06 16:21 -27.35399 -178.63068 40114 ft 448 kts 210°
2026-05-06 16:21 -27.40886 -178.66383 40119 ft 447 kts 210°
2026-05-06 16:22 -27.46364 -178.69697 40131 ft 446 kts 210°
2026-05-06 16:22 -27.51838 -178.73014 40124 ft 447 kts 210°
2026-05-06 16:23 -27.57315 -178.76334 40131 ft 447 kts 210°
2026-05-06 16:23 -27.62795 -178.79660 40123 ft 448 kts 210°
2026-05-06 16:24 -27.68283 -178.82996 40125 ft 448 kts 210°
2026-05-06 16:24 -27.73774 -178.86334 40136 ft 448 kts 210°
2026-05-06 16:25 -27.79264 -178.89678 40130 ft 448 kts 210°
2026-05-06 16:25 -27.84744 -178.93022 40136 ft 447 kts 210°
2026-05-06 16:26 -27.90220 -178.96365 40138 ft 447 kts 210°
2026-05-06 16:26 -27.95680 -178.99701 40136 ft 446 kts 210°
2026-05-06 16:27 -28.01095 -179.03015 40138 ft 445 kts 210°
2026-05-06 16:27 -28.06539 -179.06350 40151 ft 445 kts 210°
2026-05-06 16:28 -28.11977 -179.09684 40149 ft 445 kts 210°
2026-05-06 16:28 -28.17420 -179.13028 40145 ft 445 kts 210°
2026-05-06 16:29 -28.22860 -179.16373 40148 ft 445 kts 210°
2026-05-06 16:29 -28.28302 -179.19722 40149 ft 445 kts 210°
2026-05-06 16:30 -28.32864 -179.22533 40157 ft 445 kts 210°
2026-05-06 16:30 -28.39195 -179.26437 40168 ft 446 kts 210°
2026-05-06 16:31 -28.44649 -179.29807 40160 ft 446 kts 210°
2026-05-06 16:31 -28.50101 -179.33179 40165 ft 446 kts 210°
2026-05-06 16:32 -28.55559 -179.36557 40164 ft 446 kts 210°
2026-05-06 16:32 -28.61010 -179.39937 40171 ft 446 kts 210°
2026-05-06 16:33 -28.66456 -179.43316 40185 ft 446 kts 210°
2026-05-06 16:34 -28.74614 -179.48386 40181 ft 445 kts 210°
2026-05-06 16:34 -28.80053 -179.51773 40181 ft 445 kts 210°
2026-05-06 16:35 -28.85447 -179.55135 40179 ft 445 kts 210°
2026-05-06 16:35 -28.90880 -179.58525 40181 ft 445 kts 210°
2026-05-06 16:36 -28.96095 -179.61782 40193 ft 444 kts 210°
2026-05-06 16:36 -29.01519 -179.65174 40188 ft 444 kts 210°
2026-05-06 16:37 -29.06939 -179.68567 40194 ft 444 kts 210°
2026-05-06 16:37 -29.12360 -179.71966 40191 ft 445 kts 210°
2026-05-06 16:38 -29.17788 -179.75374 40192 ft 445 kts 210°
2026-05-06 16:38 -29.23220 -179.78788 40203 ft 446 kts 210°
2026-05-06 16:39 -29.28659 -179.82212 40206 ft 446 kts 210°
2026-05-06 16:39 -29.34106 -179.85643 40202 ft 447 kts 210°
2026-05-06 16:40 -29.39548 -179.89075 40202 ft 447 kts 210°
2026-05-06 16:40 -29.44994 -179.92515 40203 ft 447 kts 210°
2026-05-06 16:41 -29.50433 -179.95953 40202 ft 447 kts 210°
2026-05-06 16:41 -29.55836 -179.99375 40219 ft 446 kts 210°
2026-05-06 16:42 -29.61275 179.97178 40204 ft 446 kts 210°
2026-05-06 16:42 -29.66704 179.93733 40214 ft 445 kts 210°
2026-05-06 16:43 -29.72117 179.90292 40205 ft 444 kts 210°
2026-05-06 16:43 -29.77520 179.86854 40208 ft 443 kts 210°
2026-05-06 16:44 -29.82912 179.83418 40230 ft 443 kts 210°
2026-05-06 16:44 -29.88306 179.79978 40226 ft 443 kts 210°
2026-05-06 16:45 -29.93699 179.76531 40225 ft 444 kts 210°
2026-05-06 16:45 -29.99103 179.73076 40215 ft 444 kts 210°
2026-05-06 16:46 -30.04513 179.69613 40231 ft 445 kts 210°
2026-05-06 16:46 -30.09725 179.66273 40220 ft 446 kts 210°
2026-05-06 16:47 -30.15146 179.62793 40235 ft 446 kts 210°
2026-05-06 16:47 -30.20580 179.59300 40230 ft 447 kts 210°
2026-05-06 16:48 -30.26010 179.55805 40244 ft 447 kts 210°
2026-05-06 16:48 -30.31435 179.52308 40224 ft 446 kts 210°
2026-05-06 16:49 -30.36851 179.48814 40223 ft 446 kts 210°
2026-05-06 16:49 -30.42264 179.45316 40240 ft 445 kts 210°
2026-05-06 16:50 -30.47665 179.41822 40233 ft 444 kts 210°
2026-05-06 16:50 -30.53025 179.38351 40236 ft 444 kts 210°
2026-05-06 16:51 -30.58411 179.34857 40240 ft 443 kts 210°
2026-05-06 16:51 -30.63794 179.31361 40241 ft 443 kts 210°
2026-05-06 16:52 -30.69178 179.27860 40241 ft 443 kts 210°
2026-05-06 16:52 -30.74560 179.24355 40250 ft 443 kts 210°
2026-05-06 16:53 -30.79938 179.20848 40260 ft 443 kts 210°
2026-05-06 16:53 -30.85315 179.17338 40245 ft 443 kts 210°
2026-05-06 16:54 -30.90689 179.13826 40246 ft 442 kts 210°
2026-05-06 16:54 -30.96051 179.10317 40258 ft 442 kts 210°
2026-05-06 16:55 -31.01408 179.06806 40248 ft 442 kts 210°
2026-05-06 16:55 -31.06759 179.03294 40251 ft 441 kts 210°
2026-05-06 16:56 -31.12108 178.99780 40251 ft 441 kts 210°
2026-05-06 16:56 -31.17449 178.96266 40253 ft 441 kts 210°
2026-05-06 16:57 -31.22791 178.92747 40256 ft 441 kts 210°
2026-05-06 16:57 -31.28137 178.89220 40256 ft 441 kts 210°
2026-05-06 16:58 -31.33487 178.85686 40259 ft 442 kts 210°
2026-05-06 16:58 -31.38834 178.82151 40259 ft 441 kts 210°
2026-05-06 16:59 -31.44177 178.78612 40259 ft 441 kts 210°
2026-05-06 16:59 -31.49477 178.75097 40260 ft 440 kts 211°
2026-05-06 17:00 -31.54801 178.71562 40267 ft 440 kts 211°
2026-05-06 17:00 -31.60123 178.68024 40266 ft 439 kts 211°
2026-05-06 17:01 -31.65436 178.64486 40265 ft 439 kts 211°
2026-05-06 17:01 -31.70747 178.60946 40263 ft 439 kts 211°
2026-05-06 17:02 -31.76053 178.57404 40266 ft 439 kts 211°
2026-05-06 17:02 -31.80462 178.54457 40271 ft 439 kts 211°
2026-05-06 17:03 -31.86662 178.50308 40269 ft 439 kts 211°
2026-05-06 17:03 -31.91076 178.47350 40271 ft 439 kts 211°
2026-05-06 17:04 -31.97278 178.43189 40268 ft 439 kts 211°
2026-05-06 17:04 -32.01682 178.40229 40267 ft 438 kts 211°
2026-05-06 17:05 -32.06969 178.36672 40282 ft 437 kts 211°
2026-05-06 17:05 -32.12250 178.33114 40273 ft 437 kts 211°
2026-05-06 17:06 -32.17520 178.29559 40277 ft 436 kts 211°
2026-05-06 17:06 -32.22788 178.26001 40277 ft 436 kts 211°
2026-05-06 17:07 -32.28042 178.22447 40277 ft 435 kts 211°
2026-05-06 17:07 -32.33260 178.18913 40278 ft 435 kts 211°
2026-05-06 17:08 -32.38513 178.15350 40280 ft 435 kts 211°
2026-05-06 17:08 -32.43770 178.11780 40284 ft 436 kts 211°
2026-05-06 17:09 -32.49029 178.08204 40281 ft 436 kts 211°
2026-05-06 17:09 -32.54283 178.04626 40284 ft 436 kts 211°
2026-05-06 17:10 -32.59538 178.01042 40285 ft 436 kts 211°
2026-05-06 17:10 -32.64794 177.97453 40286 ft 436 kts 211°
2026-05-06 17:11 -32.70048 177.93861 40289 ft 436 kts 211°
2026-05-06 17:11 -32.75302 177.90263 40291 ft 436 kts 211°
2026-05-06 17:12 -32.80548 177.86666 40290 ft 435 kts 211°
2026-05-06 17:12 -32.85795 177.83063 40294 ft 435 kts 211°
2026-05-06 17:13 -32.91041 177.79456 40290 ft 435 kts 211°
2026-05-06 17:13 -32.96284 177.75847 40299 ft 435 kts 211°
2026-05-06 17:14 -33.01491 177.72256 40297 ft 435 kts 211°
2026-05-06 17:14 -33.06732 177.68638 40297 ft 435 kts 211°
2026-05-06 17:15 -33.11971 177.65016 40294 ft 435 kts 211°
2026-05-06 17:15 -33.17208 177.61390 40298 ft 435 kts 211°
2026-05-06 17:16 -33.22449 177.57756 40298 ft 435 kts 211°
2026-05-06 17:16 -33.27683 177.54123 40298 ft 435 kts 211°
2026-05-06 17:17 -33.32922 177.50480 40302 ft 435 kts 211°
2026-05-06 17:17 -33.38156 177.46836 40304 ft 435 kts 211°
2026-05-06 17:18 -33.43394 177.43184 40304 ft 435 kts 211°
2026-05-06 17:18 -33.48625 177.39532 40305 ft 435 kts 211°
2026-05-06 17:19 -33.53859 177.35872 40307 ft 436 kts 212°
2026-05-06 17:19 -33.59092 177.32208 40302 ft 435 kts 212°
2026-05-06 17:20 -33.64320 177.28543 40306 ft 435 kts 212°
2026-05-06 17:20 -33.69548 177.24871 40308 ft 435 kts 212°
2026-05-06 17:21 -33.74774 177.21196 40308 ft 435 kts 212°
2026-05-06 17:21 -33.79995 177.17520 40309 ft 435 kts 212°
2026-05-06 17:22 -33.85216 177.13838 40307 ft 435 kts 212°
2026-05-06 17:22 -33.90432 177.10154 40314 ft 435 kts 212°
2026-05-06 17:23 -33.95649 177.06465 40312 ft 435 kts 212°
2026-05-06 17:23 -34.00869 177.02767 40309 ft 435 kts 212°
2026-05-06 17:24 -34.05873 176.99218 40310 ft 435 kts 212°
2026-05-06 17:24 -34.11091 176.95511 40313 ft 435 kts 212°
2026-05-06 17:25 -34.16305 176.91804 40308 ft 435 kts 212°
2026-05-06 17:25 -34.21520 176.88096 40311 ft 435 kts 212°
2026-05-06 17:26 -34.26739 176.84381 40313 ft 435 kts 212°
2026-05-06 17:26 -34.31924 176.80685 40316 ft 436 kts 212°
2026-05-06 17:27 -34.37141 176.76958 40313 ft 436 kts 212°
2026-05-06 17:27 -34.42364 176.73222 40313 ft 436 kts 212°
2026-05-06 17:28 -34.47585 176.69482 40318 ft 436 kts 212°
2026-05-06 17:28 -34.52805 176.65737 40317 ft 436 kts 212°
2026-05-06 17:29 -34.58030 176.61983 40316 ft 436 kts 212°
2026-05-06 17:29 -34.63253 176.58225 40316 ft 436 kts 212°
2026-05-06 17:30 -34.68474 176.54463 40315 ft 436 kts 212°
2026-05-06 17:30 -34.73698 176.50693 40320 ft 437 kts 212°
2026-05-06 17:31 -34.78920 176.46919 40315 ft 437 kts 212°
2026-05-06 17:31 -34.84141 176.43140 40315 ft 437 kts 212°
2026-05-06 17:32 -34.89360 176.39357 40317 ft 437 kts 212°
2026-05-06 17:32 -34.94547 176.35591 40324 ft 437 kts 212°
2026-05-06 17:33 -34.99766 176.31796 40319 ft 437 kts 212°
2026-05-06 17:33 -35.04984 176.27997 40321 ft 437 kts 212°
2026-05-06 17:34 -35.10201 176.24191 40322 ft 437 kts 212°
2026-05-06 17:34 -35.15417 176.20381 40320 ft 437 kts 212°
2026-05-06 17:35 -35.20631 176.16568 40320 ft 437 kts 212°
2026-05-06 17:35 -35.25848 176.12746 40318 ft 437 kts 212°
2026-05-06 17:36 -35.33673 176.07000 40318 ft 437 kts 212°
2026-05-06 17:36 -35.38888 176.03162 40318 ft 437 kts 212°
2026-05-06 17:37 -35.44103 175.99319 40325 ft 437 kts 212°
2026-05-06 17:37 -35.49321 175.95467 40322 ft 438 kts 212°
2026-05-06 17:38 -35.54541 175.91608 40321 ft 438 kts 212°
2026-05-06 17:38 -35.59728 175.87768 40318 ft 438 kts 212°
2026-05-06 17:39 -35.64949 175.83896 40321 ft 438 kts 212°
2026-05-06 17:39 -35.70168 175.80020 40309 ft 438 kts 212°
2026-05-06 17:40 -35.72774 175.78083 39966 ft 441 kts 212°
2026-05-06 17:40 -35.75424 175.76110 39246 ft 447 kts 212°
2026-05-06 17:40 -35.78100 175.74116 38266 ft 453 kts 212°
2026-05-06 17:40 -35.80816 175.72091 37221 ft 459 kts 212°
2026-05-06 17:41 -35.83567 175.70039 36147 ft 466 kts 212°
2026-05-06 17:41 -35.86363 175.67952 34944 ft 474 kts 212°
2026-05-06 17:41 -35.89204 175.65829 33915 ft 478 kts 212°
2026-05-06 17:41 -35.92035 175.63713 33207 ft 473 kts 212°
2026-05-06 17:42 -35.94862 175.61597 31903 ft 480 kts 212°
2026-05-06 17:42 -35.97738 175.59442 30780 ft 485 kts 211°
2026-05-06 17:42 -36.00625 175.57279 29662 ft 486 kts 211°
2026-05-06 17:42 -36.03519 175.55108 28572 ft 486 kts 211°
2026-05-06 17:43 -36.06406 175.52940 27558 ft 485 kts 212°
2026-05-06 17:43 -36.09284 175.50778 26660 ft 482 kts 212°
2026-05-06 17:43 -36.12147 175.48625 25772 ft 481 kts 212°
2026-05-06 17:43 -36.14978 175.46492 25210 ft 472 kts 212°
2026-05-06 17:44 -36.17757 175.44399 24716 ft 464 kts 212°
2026-05-06 17:44 -36.20469 175.42355 24545 ft 448 kts 212°
2026-05-06 17:44 -36.23088 175.40378 24425 ft 433 kts 213°
2026-05-06 17:44 -36.25585 175.38490 24328 ft 419 kts 213°
2026-05-06 17:45 -36.28039 175.36634 24180 ft 407 kts 213°
2026-05-06 17:45 -36.30428 175.34826 23961 ft 399 kts 212°
2026-05-06 17:45 -36.32786 175.33040 23529 ft 395 kts 213°
2026-05-06 17:45 -36.35121 175.31270 23065 ft 392 kts 213°
2026-05-06 17:46 -36.37484 175.29605 22556 ft 391 kts 206°
2026-05-06 17:46 -36.40009 175.28353 22079 ft 390 kts 201°
2026-05-06 17:46 -36.42579 175.27286 21652 ft 388 kts 200°
2026-05-06 17:46 -36.45131 175.26239 21225 ft 385 kts 200°
2026-05-06 17:47 -36.47455 175.25240 20837 ft 383 kts 201°
2026-05-06 17:47 -36.49954 175.24123 20409 ft 381 kts 202°
2026-05-06 17:47 -36.52436 175.22993 19976 ft 379 kts 202°
2026-05-06 17:47 -36.54908 175.21864 19559 ft 377 kts 202°
2026-05-06 17:48 -36.57366 175.20738 19157 ft 375 kts 202°
2026-05-06 17:48 -36.59804 175.19623 18865 ft 369 kts 202°
2026-05-06 17:48 -36.62177 175.18539 18800 ft 357 kts 202°
2026-05-06 17:48 -36.64464 175.17494 18723 ft 344 kts 202°
2026-05-06 17:49 -36.66675 175.16482 18621 ft 333 kts 202°
2026-05-06 17:49 -36.68790 175.15514 18177 ft 317 kts 202°
2026-05-06 17:49 -36.70846 175.14571 17383 ft 313 kts 202°
2026-05-06 17:49 -36.72886 175.13634 16537 ft 312 kts 202°
2026-05-06 17:50 -36.74920 175.12700 15727 ft 310 kts 202°
2026-05-06 17:50 -36.76935 175.11775 14972 ft 307 kts 203°
2026-05-06 17:50 -36.78921 175.10842 14215 ft 303 kts 208°
2026-05-06 17:50 -36.80597 175.09355 13306 ft 294 kts 233°
2026-05-06 17:51 -36.81566 175.07214 12438 ft 285 kts 257°
2026-05-06 17:51 -36.81809 175.04809 11605 ft 277 kts 278°
2026-05-06 17:51 -36.81367 175.02523 10811 ft 268 kts 298°
2026-05-06 17:51 -36.80335 175.00635 10034 ft 261 kts 318°
2026-05-06 17:52 -36.78873 174.99366 9207 ft 256 kts 338°
2026-05-06 17:52 -36.77184 174.98748 8426 ft 252 kts 351°
2026-05-06 17:52 -36.75453 174.98685 7657 ft 249 kts 11°
2026-05-06 17:52 -36.73801 174.99312 6913 ft 247 kts 19°
2026-05-06 17:53 -36.72203 175.00080 6137 ft 245 kts 20°
2026-05-06 17:53 -36.70620 175.00834 5398 ft 242 kts 20°
2026-05-06 17:53 -36.69053 175.01562 4683 ft 238 kts 19°
2026-05-06 17:53 -36.67517 175.02279 3975 ft 233 kts 24°
2026-05-06 17:54 -36.66290 175.03551 3399 ft 237 kts 58°
2026-05-06 17:54 -36.65757 175.05529 3259 ft 248 kts 79°
2026-05-06 17:54 -36.65832 175.07697 3071 ft 255 kts 102°
2026-05-06 17:54 -36.66643 175.09640 2997 ft 253 kts 129°
2026-05-06 17:55 -36.67536 175.10567 2971 ft 254 kts 148°
2026-05-06 17:55 -36.69234 175.11249 3003 ft 264 kts 173°
2026-05-06 17:55 -36.71055 175.10989 3004 ft 266 kts 194°
2026-05-06 17:55 -36.72874 175.10408 3007 ft 272 kts 194°
2026-05-06 17:56 -36.74703 175.09837 2995 ft 270 kts 194°
2026-05-06 17:56 -36.76511 175.09274 2977 ft 266 kts 193°
2026-05-06 17:56 -36.78300 175.08719 2991 ft 265 kts 193°
2026-05-06 17:56 -36.80095 175.08164 3001 ft 267 kts 193°
2026-05-06 17:57 -36.81906 175.07605 2993 ft 269 kts 193°
2026-05-06 17:57 -36.83725 175.07048 2988 ft 269 kts 193°
2026-05-06 17:57 -36.85545 175.06491 2993 ft 269 kts 193°
2026-05-06 17:57 -36.87364 175.05934 2990 ft 269 kts 193°
2026-05-06 17:58 -36.89180 175.05380 2963 ft 264 kts 193°
2026-05-06 17:58 -36.90910 175.04853 2951 ft 247 kts 193°
2026-05-06 17:58 -36.92512 175.04360 2951 ft 228 kts 196°
2026-05-06 17:58 -36.93843 175.03444 2993 ft 217 kts 233°
2026-05-06 17:59 -36.94596 175.01878 3018 ft 209 kts 249°
2026-05-06 17:59 -36.95188 175.00262 3085 ft 196 kts 252°
2026-05-06 17:59 -36.95660 174.98740 2969 ft 180 kts 256°
2026-05-06 17:59 -36.96056 174.97326 2752 ft 165 kts 257°
2026-05-06 18:00 -36.96418 174.96011 2558 ft 160 kts 257°
2026-05-06 18:00 -36.96789 174.94655 2363 ft 169 kts 256°
2026-05-06 18:00 -36.97173 174.93265 2113 ft 167 kts 256°
2026-05-06 18:00 -36.97543 174.91919 1897 ft 162 kts 256°
2026-05-06 18:01 -36.97912 174.90578 1676 ft 164 kts 255°
2026-05-06 18:01 -36.98283 174.89232 1454 ft 164 kts 255°
2026-05-06 18:01 -36.98656 174.87879 1251 ft 165 kts 255°
2026-05-06 18:01 -36.99026 174.86540 1012 ft 161 kts 254°
2026-05-06 18:02 -36.99388 174.85225 795 ft 159 kts 252°
2026-05-06 18:02 -36.99741 174.83943 618 ft 155 kts 252°
2026-05-06 18:02 -37.00094 174.82690 453 ft 152 kts 251°
2026-05-06 18:02 -37.00448 174.81435 296 ft 155 kts 256°
2026-05-06 18:03 -37.00797 174.80166 84 ft 153 kts 254°
2026-05-06 18:03 -37.01114 174.78948 30 ft 137 kts 251°
2026-05-06 18:03 -37.01342 174.78126 30 ft 65 kts 250°
2026-05-06 18:03 -37.01399 174.77846 30 ft 19 kts 300°
2026-05-06 18:04 -37.01313 174.77786 30 ft 13 kts 339°
2026-05-06 18:04 -37.01226 174.77750 30 ft 13 kts 341°
2026-05-06 18:04 -37.01139 174.77713 30 ft 13 kts 341°
2026-05-06 18:04 -37.01053 174.77676 30 ft 13 kts 341°
2026-05-06 18:05 -37.00966 174.77640 30 ft 13 kts 341°
2026-05-06 18:05 -37.00880 174.77602 30 ft 13 kts 340°
2026-05-06 18:05 -37.00860 174.77594 30 ft 0 kts 340°
2026-05-06 18:08 -37.00857 174.77593 30 ft 6 kts 340°
2026-05-06 18:09 -37.00763 174.77548 30 ft 16 kts 343°
2026-05-06 18:09 -37.00706 174.77560 30 ft 4 kts 48°
2026-05-06 18:09 -37.00669 174.77667 30 ft 16 kts 71°
2026-05-06 18:09 -37.00634 174.77794 30 ft 16 kts 71°
2026-05-06 18:10 -37.00601 174.77911 30 ft 5 kts 71°
2026-05-06 18:10 -37.00597 174.77978 30 ft 11 kts 104°
2026-05-06 18:10 -37.00656 174.78042 30 ft 16 kts 176°
2026-05-06 18:10 -37.00733 174.78016 30 ft 16 kts 197°
2026-05-06 18:11 -37.00819 174.78021 30 ft 13 kts 163°
2026-05-06 18:11 -37.00884 174.78059 30 ft 14 kts 137°
2026-05-06 18:11 -37.00924 174.78139 30 ft 16 kts 118°
2026-05-06 18:11 -37.00968 174.78225 30 ft 11 kts 131°
2026-05-06 18:12 -37.00993 174.78264 29 ft 9 kts 117°